Campo, CA

1:54 AM PST on January 20, 2018 (GMT -0800)
Campo

Weather History for KCZZ - March, 2013

Change the Weather History Date:

Friday, March 15, 2013

  Actual Average Record
Temperature  
Mean Temperature 61 °F 52 °F  
Max Temperature 80 °F 67 °F 83 °F (2007)
Min Temperature 41 °F 36 °F 15 °F (1977)
Degree Days  
Heating Degree Days 4 14  
Month to date heating degree days 201 211  
Since 1 July heating degree days 2345 2262  
Cooling Degree Days 0 0  
Month to date cooling degree days 0 0  
Year to date cooling degree days 0 0  
Growing Degree Days 12 (Base 50)    
Moisture  
Dew Point 39 °F    
Average Humidity 49    
Maximum Humidity 76    
Minimum Humidity 22    
Precipitation  
Precipitation 0.00 in 0.09 in 1.05 in (2003)
Month to date precipitation 1.43 1.57  
Year to date precipitation 4.44 7.78  
Since 1 July precipitation 8.91  
Snow  
Snow 0.00 in - - ()
Month to date snowfall 0.0  
Year to date snowfall 0.0  
Snow Depth 0.00 in    
Sea Level Pressure  
Sea Level Pressure 29.95 in    
Wind  
Wind Speed 7 mph (East)    
Max Wind Speed 18 mph    
Max Gust Speed 22 mph    
T = Trace of Precipitation, MM = Missing Value Source: NWS Daily Summary

Daily Weather History Graph

Daily Weather History Graph

Search for Another Location

Airport or City:

Trip Planner

Search our weather history database for the weather conditions in past years. The results will help you decide how hot, cold, wet, or windy it might be!

Date:

Astronomy

Mar. 15, 2013 Rise Set
Actual Time 6:55 AM PDT 6:54 PM PDT
Civil Twilight 6:31 AM PDT 7:18 PM PDT
Nautical Twilight 6:02 AM PDT 7:47 PM PDT
Astronomical Twilight 5:33 AM PDT 8:16 PM PDT
Moon 9:03 AM PDT (3/15) 10:56 PM PDT (3/15)
Length of Visible Light 12h 47m
Length of Day
11h 58m
Waxing Crescent, 16% of the Moon is Illuminated
Mar 15
Waxing Crescent
Mar 19
First Quarter
Mar 27
Full
Apr 2
Last Quarter
Apr 10
New

Hourly Weather History & Observations

Time (PDT) Temp. Windchill Dew Point Humidity Pressure Visibility Wind Dir Wind Speed Gust Speed Precip Events Conditions
12:52 AM 48.0 °F - 37.9 °F 68% 30.01 in - NE 6.9 mph - N/A   Unknown
1:52 AM 44.1 °F 40.8 °F 35.1 °F 71% 29.99 in - NE 5.8 mph - N/A   Unknown
2:52 AM 46.0 °F 41.9 °F 36.0 °F 68% 29.96 in - NE 8.1 mph - N/A   Unknown
3:52 AM 46.9 °F - 35.1 °F 63% 29.95 in - ENE 5.8 mph - N/A   Unknown
4:52 AM 46.0 °F 43.1 °F 35.1 °F 66% 29.95 in - NE 5.8 mph - N/A   Unknown
5:52 AM 44.1 °F 40.8 °F 35.1 °F 71% 29.97 in - NE 5.8 mph - N/A   Unknown
6:52 AM 44.1 °F 40.1 °F 35.1 °F 71% 29.98 in - ENE 6.9 mph - N/A   Unknown
7:52 AM 48.9 °F - 37.0 °F 64% 29.99 in - Calm Calm - N/A   Unknown
8:52 AM 60.1 °F - 39.9 °F 47% 29.99 in - Calm Calm - N/A   Unknown
9:52 AM 68.0 °F - 42.1 °F 39% 29.99 in - Calm Calm - N/A   Unknown
10:52 AM 75.0 °F - 39.0 °F 27% 29.98 in - SW 8.1 mph - N/A   Unknown
11:52 AM 77.0 °F - 37.9 °F 24% 29.97 in - SSW 5.8 mph - N/A   Unknown
12:52 PM 79.0 °F - 42.1 °F 27% 29.94 in - SSW 11.5 mph - N/A   Unknown
1:52 PM 80.1 °F - 41.0 °F 25% 29.93 in - SW 16.1 mph - N/A   Unknown
2:52 PM 78.1 °F - 39.0 °F 25% 29.91 in - SSW 16.1 mph - N/A   Unknown
3:52 PM 78.1 °F - 39.0 °F 25% 29.90 in - SSW 13.8 mph - N/A   Unknown
4:52 PM 77.0 °F - 35.1 °F 22% 29.90 in - SSW 11.5 mph - N/A   Unknown
5:52 PM 73.0 °F - 45.0 °F 37% 29.91 in - SW 8.1 mph - N/A   Unknown
6:52 PM 66.0 °F - 44.1 °F 45% 29.92 in - SSW 12.7 mph - N/A   Unknown
7:52 PM 61.0 °F - 43.0 °F 52% 29.94 in - Calm Calm - N/A   Unknown
8:52 PM 52.0 °F - 39.9 °F 63% 29.94 in - North 3.5 mph - N/A   Unknown
9:52 PM 48.9 °F - 39.9 °F 71% 29.94 in - NE 4.6 mph - N/A   Unknown
10:52 PM 45.0 °F 41.2 °F 37.0 °F 74% 29.94 in - ENE 6.9 mph - N/A   Unknown
11:52 PM 43.0 °F 38.8 °F 35.1 °F 74% 29.92 in - NE 6.9 mph - N/A   Unknown